Year,Month,Day,Hour,Minute,Value (Times are PST for temperature in C)
2018,04,27,00,00,18.50
2018,04,27,00,01,18.50
2018,04,27,00,02,18.50
2018,04,27,00,03,18.50
2018,04,27,00,04,18.50
2018,04,27,00,05,18.50
2018,04,27,00,06,18.50
2018,04,27,00,07,18.50
2018,04,27,00,08,18.50
2018,04,27,00,09,18.50
2018,04,27,00,10,18.50
2018,04,27,00,11,18.50
2018,04,27,00,12,18.50
2018,04,27,00,13,18.50
2018,04,27,00,14,18.50
2018,04,27,00,15,18.50
2018,04,27,00,16,18.50
2018,04,27,00,17,18.50
2018,04,27,00,18,18.50
2018,04,27,00,19,18.50
2018,04,27,00,20,18.60
2018,04,27,00,21,18.60
2018,04,27,00,22,18.60
2018,04,27,00,23,18.70
2018,04,27,00,24,18.70
2018,04,27,00,25,18.70
2018,04,27,00,26,18.70
2018,04,27,00,27,18.70
2018,04,27,00,28,18.80
2018,04,27,00,29,18.80
2018,04,27,00,30,18.80
2018,04,27,00,31,18.80
2018,04,27,00,32,18.80
2018,04,27,00,33,18.90
2018,04,27,00,34,18.80
2018,04,27,00,35,18.80
2018,04,27,00,36,18.80
2018,04,27,00,37,18.80
2018,04,27,00,38,18.80
2018,04,27,00,39,18.80
2018,04,27,00,40,18.80
2018,04,27,00,41,18.80
2018,04,27,00,42,18.80
2018,04,27,00,43,18.70
2018,04,27,00,44,18.70
2018,04,27,00,45,18.70
2018,04,27,00,46,18.70
2018,04,27,00,47,18.70
2018,04,27,00,48,18.70
2018,04,27,00,49,18.70
2018,04,27,00,50,18.60
2018,04,27,00,51,18.60
2018,04,27,00,52,18.60
2018,04,27,00,53,18.60
2018,04,27,00,54,18.60
2018,04,27,00,55,18.60
2018,04,27,00,56,18.60
2018,04,27,00,57,18.60
2018,04,27,00,58,18.50
2018,04,27,00,59,18.50
2018,04,27,01,00,18.50
2018,04,27,01,01,18.50
2018,04,27,01,02,18.40
2018,04,27,01,03,18.40
2018,04,27,01,04,18.40
2018,04,27,01,05,18.40
2018,04,27,01,06,18.30
2018,04,27,01,07,18.30
2018,04,27,01,08,18.30
2018,04,27,01,09,18.20
2018,04,27,01,10,18.20
2018,04,27,01,11,18.20
2018,04,27,01,12,18.20
2018,04,27,01,13,18.10
2018,04,27,01,14,18.10
2018,04,27,01,15,18.10
2018,04,27,01,16,18.00
2018,04,27,01,17,18.00
2018,04,27,01,18,17.90
2018,04,27,01,19,17.90
2018,04,27,01,20,17.90
2018,04,27,01,21,17.90
2018,04,27,01,22,17.80
2018,04,27,01,23,17.80
2018,04,27,01,24,17.80
2018,04,27,01,25,17.70
2018,04,27,01,26,17.70
2018,04,27,01,27,17.70
2018,04,27,01,28,17.60
2018,04,27,01,29,17.60
2018,04,27,01,30,17.50
2018,04,27,01,31,17.50
2018,04,27,01,32,17.40
2018,04,27,01,33,17.40
2018,04,27,01,34,17.30
2018,04,27,01,35,17.30
2018,04,27,01,36,17.30
2018,04,27,01,37,17.20
2018,04,27,01,38,17.10
2018,04,27,01,39,17.10
2018,04,27,01,40,17.00
2018,04,27,01,41,17.00
2018,04,27,01,42,16.90
2018,04,27,01,43,16.90
2018,04,27,01,44,16.90
2018,04,27,01,45,16.80
2018,04,27,01,46,16.80
2018,04,27,01,47,16.80
2018,04,27,01,48,16.70
2018,04,27,01,49,16.70
2018,04,27,01,50,16.70
2018,04,27,01,51,16.60
2018,04,27,01,52,16.60
2018,04,27,01,53,16.50
2018,04,27,01,54,16.40
2018,04,27,01,55,16.30
2018,04,27,01,56,16.30
2018,04,27,01,57,16.20
2018,04,27,01,58,16.10
2018,04,27,01,59,16.00
2018,04,27,02,00,16.00
2018,04,27,02,01,15.90
2018,04,27,02,02,15.80
2018,04,27,02,03,15.70
2018,04,27,02,04,15.70
2018,04,27,02,05,15.60
2018,04,27,02,06,15.50
2018,04,27,02,07,15.40
2018,04,27,02,08,15.40
2018,04,27,02,09,15.30
2018,04,27,02,10,15.30
2018,04,27,02,11,15.20
2018,04,27,02,12,15.10
2018,04,27,02,13,15.00
2018,04,27,02,14,15.00
2018,04,27,02,15,14.90
2018,04,27,02,16,14.90
2018,04,27,02,17,14.80
2018,04,27,02,18,14.80
2018,04,27,02,19,14.70
2018,04,27,02,20,14.70
2018,04,27,02,21,14.70
2018,04,27,02,22,14.60
2018,04,27,02,23,14.60
2018,04,27,02,24,14.50
2018,04,27,02,25,14.50
2018,04,27,02,26,14.40
2018,04,27,02,27,14.30
2018,04,27,02,28,14.30
2018,04,27,02,29,14.30
2018,04,27,02,30,14.20
2018,04,27,02,31,14.20
2018,04,27,02,32,14.10
2018,04,27,02,33,14.10
2018,04,27,02,34,14.00
2018,04,27,02,35,14.00
2018,04,27,02,36,13.90
2018,04,27,02,37,13.90
2018,04,27,02,38,13.80
2018,04,27,02,39,13.80
2018,04,27,02,40,13.80
2018,04,27,02,41,13.80
2018,04,27,02,42,13.80
2018,04,27,02,43,13.70
2018,04,27,02,44,13.70
2018,04,27,02,45,13.70
2018,04,27,02,46,13.70
2018,04,27,02,47,13.70
2018,04,27,02,48,13.60
2018,04,27,02,49,13.60
2018,04,27,02,50,13.60
2018,04,27,02,51,13.60
2018,04,27,02,52,13.60
2018,04,27,02,53,13.50
2018,04,27,02,54,13.50
2018,04,27,02,55,13.40
2018,04,27,02,56,13.40
2018,04,27,02,57,13.40
2018,04,27,02,58,13.40
2018,04,27,02,59,13.40
2018,04,27,03,00,13.30
2018,04,27,03,01,13.30
2018,04,27,03,02,13.30
2018,04,27,03,03,13.30
2018,04,27,03,04,13.30
2018,04,27,03,05,13.20
2018,04,27,03,06,13.20
2018,04,27,03,07,13.20
2018,04,27,03,08,13.20
2018,04,27,03,09,13.20
2018,04,27,03,10,13.10
2018,04,27,03,11,13.10
2018,04,27,03,12,13.10
2018,04,27,03,13,13.10
2018,04,27,03,14,13.00
2018,04,27,03,15,13.00
2018,04,27,03,16,13.00
2018,04,27,03,17,12.90
2018,04,27,03,18,12.90
2018,04,27,03,19,12.90
2018,04,27,03,20,12.90
2018,04,27,03,21,12.90
2018,04,27,03,22,12.80
2018,04,27,03,23,12.80
2018,04,27,03,24,12.80
2018,04,27,03,25,12.80
2018,04,27,03,26,12.70
2018,04,27,03,27,12.70
2018,04,27,03,28,12.70
2018,04,27,03,29,12.60
2018,04,27,03,30,12.60
2018,04,27,03,31,12.60
2018,04,27,03,32,12.50
2018,04,27,03,33,12.50
2018,04,27,03,34,12.40
2018,04,27,03,35,12.40
2018,04,27,03,36,12.40
2018,04,27,03,37,12.40
2018,04,27,03,38,12.30
2018,04,27,03,39,12.30
2018,04,27,03,40,12.30
2018,04,27,03,41,12.30
2018,04,27,03,42,12.20
2018,04,27,03,43,12.20
2018,04,27,03,44,12.20
2018,04,27,03,45,12.20
2018,04,27,03,46,12.10
2018,04,27,03,47,12.10
2018,04,27,03,48,12.10
2018,04,27,03,49,12.10
2018,04,27,03,50,12.00
2018,04,27,03,51,12.00
2018,04,27,03,52,11.90
2018,04,27,03,53,11.90
2018,04,27,03,54,11.90
2018,04,27,03,55,11.90
2018,04,27,03,56,11.80
2018,04,27,03,57,11.80
2018,04,27,03,58,11.80
2018,04,27,03,59,11.70
2018,04,27,04,00,11.70
2018,04,27,04,01,11.70
2018,04,27,04,02,11.70
2018,04,27,04,03,11.70
2018,04,27,04,04,11.70
2018,04,27,04,05,11.60
2018,04,27,04,06,11.60
2018,04,27,04,07,11.60
2018,04,27,04,08,11.60
2018,04,27,04,09,11.60
2018,04,27,04,10,11.50
2018,04,27,04,11,11.50
2018,04,27,04,12,11.50
2018,04,27,04,13,11.50
2018,04,27,04,14,11.40
2018,04,27,04,15,11.40
2018,04,27,04,16,11.40
2018,04,27,04,17,11.40
2018,04,27,04,18,11.40
2018,04,27,04,19,11.30
2018,04,27,04,20,11.30
2018,04,27,04,21,11.30
2018,04,27,04,22,11.30
2018,04,27,04,23,11.30
2018,04,27,04,24,11.30
2018,04,27,04,25,11.20
2018,04,27,04,26,11.20
2018,04,27,04,27,11.20
2018,04,27,04,28,11.20
2018,04,27,04,29,11.20
2018,04,27,04,30,11.20
2018,04,27,04,31,11.20
2018,04,27,04,32,11.20
2018,04,27,04,33,11.10
2018,04,27,04,34,11.10
2018,04,27,04,35,11.10
2018,04,27,04,36,11.10
2018,04,27,04,37,11.10
2018,04,27,04,38,11.10
2018,04,27,04,39,11.10
2018,04,27,04,40,11.00
2018,04,27,04,41,11.00
2018,04,27,04,42,11.00
2018,04,27,04,43,11.00
2018,04,27,04,44,10.90
2018,04,27,04,45,10.90
2018,04,27,04,46,10.90
2018,04,27,04,47,10.90
2018,04,27,04,48,10.90
2018,04,27,04,49,10.90
2018,04,27,04,50,10.90
2018,04,27,04,51,10.90
2018,04,27,04,52,10.90
2018,04,27,04,53,10.80
2018,04,27,04,54,10.80
2018,04,27,04,55,10.80
2018,04,27,04,56,10.80
2018,04,27,04,57,10.80
2018,04,27,04,58,10.80
2018,04,27,04,59,10.80
2018,04,27,05,00,10.80
2018,04,27,05,01,10.80
2018,04,27,05,02,10.70
2018,04,27,05,03,10.70
2018,04,27,05,04,10.70
2018,04,27,05,05,10.70
2018,04,27,05,06,10.70
2018,04,27,05,07,10.70
2018,04,27,05,08,10.60
2018,04,27,05,09,10.60
2018,04,27,05,10,10.60
2018,04,27,05,11,10.60
2018,04,27,05,12,10.60
2018,04,27,05,13,10.50
2018,04,27,05,14,10.50
2018,04,27,05,15,10.50
2018,04,27,05,16,10.40
2018,04,27,05,17,10.40
2018,04,27,05,18,10.40
2018,04,27,05,19,10.40
2018,04,27,05,20,10.40
2018,04,27,05,21,10.40
2018,04,27,05,22,10.40
2018,04,27,05,23,10.30
2018,04,27,05,24,10.30
2018,04,27,05,25,10.30
2018,04,27,05,26,10.30
2018,04,27,05,27,10.30
2018,04,27,05,28,10.30
2018,04,27,05,29,10.30
2018,04,27,05,30,10.30
2018,04,27,05,31,10.20
2018,04,27,05,32,10.20
2018,04,27,05,33,10.20
2018,04,27,05,34,10.20
2018,04,27,05,35,10.20
2018,04,27,05,36,10.20
2018,04,27,05,37,10.20
2018,04,27,05,38,10.20
2018,04,27,05,39,10.10
2018,04,27,05,40,10.10
2018,04,27,05,41,10.10
2018,04,27,05,42,10.10
2018,04,27,05,43,10.10
2018,04,27,05,44,10.10
2018,04,27,05,45,10.10
2018,04,27,05,46,10.10
2018,04,27,05,47,10.00
2018,04,27,05,48,10.00
2018,04,27,05,49,10.00
2018,04,27,05,50,10.00
2018,04,27,05,51,9.90
2018,04,27,05,52,9.90
2018,04,27,05,53,9.90
2018,04,27,05,54,9.90
2018,04,27,05,55,9.90
2018,04,27,05,56,9.90
2018,04,27,05,57,9.90
2018,04,27,05,58,9.80
2018,04,27,05,59,9.80
2018,04,27,06,00,9.80
2018,04,27,06,01,9.80
2018,04,27,06,02,9.80
2018,04,27,06,03,9.80
2018,04,27,06,04,9.80
2018,04,27,06,05,9.80
2018,04,27,06,06,9.80
2018,04,27,06,07,9.80
2018,04,27,06,08,9.80
2018,04,27,06,09,9.80
2018,04,27,06,10,9.80
2018,04,27,06,11,9.80
2018,04,27,06,12,9.80
2018,04,27,06,13,9.80
2018,04,27,06,14,9.80
2018,04,27,06,15,9.80
2018,04,27,06,16,9.80
2018,04,27,06,17,9.80
2018,04,27,06,18,9.80
2018,04,27,06,19,9.80
2018,04,27,06,20,9.80
2018,04,27,06,21,9.80
2018,04,27,06,22,9.80
2018,04,27,06,23,9.80
2018,04,27,06,24,9.80
2018,04,27,06,25,9.80
2018,04,27,06,26,9.80
2018,04,27,06,27,9.80
2018,04,27,06,28,9.80
2018,04,27,06,29,9.80
2018,04,27,06,30,9.80
2018,04,27,06,31,9.80
2018,04,27,06,32,9.80
2018,04,27,06,33,9.80
2018,04,27,06,34,9.80
2018,04,27,06,35,9.80
2018,04,27,06,36,9.80
2018,04,27,06,37,9.80
2018,04,27,06,38,9.80
2018,04,27,06,39,9.70
2018,04,27,06,40,9.70
2018,04,27,06,41,9.70
2018,04,27,06,42,9.70
2018,04,27,06,43,9.70
2018,04,27,06,44,9.70
2018,04,27,06,45,9.70
2018,04,27,06,46,9.70
2018,04,27,06,47,9.70
2018,04,27,06,48,9.80
2018,04,27,06,49,9.80
2018,04,27,06,50,9.80
2018,04,27,06,51,9.80
2018,04,27,06,52,9.80
2018,04,27,06,53,9.80
2018,04,27,06,54,9.80
2018,04,27,06,55,9.90
2018,04,27,06,56,9.90
2018,04,27,06,57,9.90
2018,04,27,06,58,9.90
2018,04,27,06,59,10.00
2018,04,27,07,00,10.00
2018,04,27,07,01,10.00
2018,04,27,07,02,10.10
2018,04,27,07,03,10.10
2018,04,27,07,04,10.20
2018,04,27,07,05,10.20
2018,04,27,07,06,10.20
2018,04,27,07,07,10.30
2018,04,27,07,08,10.30
2018,04,27,07,09,10.30
2018,04,27,07,10,10.40
2018,04,27,07,11,10.50
2018,04,27,07,12,10.50
2018,04,27,07,13,10.60
2018,04,27,07,14,10.70
2018,04,27,07,15,10.80
2018,04,27,07,16,10.80
2018,04,27,07,17,10.90
2018,04,27,07,18,11.00
2018,04,27,07,19,11.20
2018,04,27,07,20,11.30
2018,04,27,07,21,11.40
2018,04,27,07,22,11.50
2018,04,27,07,23,11.50
2018,04,27,07,24,11.60
2018,04,27,07,25,11.60
2018,04,27,07,26,11.70
2018,04,27,07,27,11.70
2018,04,27,07,28,11.80
2018,04,27,07,29,11.80
2018,04,27,07,30,11.80
2018,04,27,07,31,11.90
2018,04,27,07,32,12.00
2018,04,27,07,33,12.00
2018,04,27,07,34,12.00
2018,04,27,07,35,12.10
2018,04,27,07,36,12.10
2018,04,27,07,37,12.20
2018,04,27,07,38,12.30
2018,04,27,07,39,12.30
2018,04,27,07,40,12.50
2018,04,27,07,41,12.60
2018,04,27,07,42,12.70
2018,04,27,07,43,12.80
2018,04,27,07,44,13.00
2018,04,27,07,45,13.10
2018,04,27,07,46,13.30
2018,04,27,07,47,13.40
2018,04,27,07,48,13.50
2018,04,27,07,49,13.60
2018,04,27,07,50,13.70
2018,04,27,07,51,13.80
2018,04,27,07,52,14.00
2018,04,27,07,53,14.10
2018,04,27,07,54,14.20
2018,04,27,07,55,14.30
2018,04,27,07,56,14.40
2018,04,27,07,57,14.50
2018,04,27,07,58,14.60
2018,04,27,07,59,14.70
2018,04,27,08,00,14.80
2018,04,27,08,01,14.90
2018,04,27,08,02,15.00
2018,04,27,08,03,15.20
2018,04,27,08,04,15.30
2018,04,27,08,05,15.30
2018,04,27,08,06,15.40
2018,04,27,08,07,15.50
2018,04,27,08,08,15.60
2018,04,27,08,09,15.60
2018,04,27,08,10,15.70
2018,04,27,08,11,15.70
2018,04,27,08,12,15.70
2018,04,27,08,13,15.70
2018,04,27,08,14,15.80
2018,04,27,08,15,15.80
2018,04,27,08,16,15.80
2018,04,27,08,17,15.90
2018,04,27,08,18,15.90
2018,04,27,08,19,15.90
2018,04,27,08,20,15.90
2018,04,27,08,21,16.00
2018,04,27,08,22,16.00
2018,04,27,08,23,16.10
2018,04,27,08,24,16.10
2018,04,27,08,25,16.10
2018,04,27,08,26,16.10
2018,04,27,08,27,16.10
2018,04,27,08,28,16.10
2018,04,27,08,29,16.10
2018,04,27,08,30,16.20
2018,04,27,08,31,16.20
2018,04,27,08,32,16.20
2018,04,27,08,33,16.20
2018,04,27,08,34,16.20
2018,04,27,08,35,16.30
2018,04,27,08,36,16.30
2018,04,27,08,37,16.30
2018,04,27,08,38,16.30
2018,04,27,08,39,16.30
2018,04,27,08,40,16.40
2018,04,27,08,41,16.40
2018,04,27,08,42,16.50
2018,04,27,08,43,16.50
2018,04,27,08,44,16.50
2018,04,27,08,45,16.60
2018,04,27,08,46,16.60
2018,04,27,08,47,16.60
2018,04,27,08,48,16.70
2018,04,27,08,49,16.70
2018,04,27,08,50,16.70
2018,04,27,08,51,16.70
2018,04,27,08,52,16.80
2018,04,27,08,53,16.80
2018,04,27,08,54,16.80
2018,04,27,08,55,16.90
2018,04,27,08,56,16.90
2018,04,27,08,57,16.90
2018,04,27,08,58,16.90
2018,04,27,08,59,17.00
2018,04,27,09,00,17.00
2018,04,27,09,01,17.00
2018,04,27,09,02,17.00
2018,04,27,09,03,17.10
2018,04,27,09,04,17.10
2018,04,27,09,05,17.10
2018,04,27,09,06,17.20
2018,04,27,09,07,17.20
2018,04,27,09,08,17.20
2018,04,27,09,09,17.30
2018,04,27,09,10,17.30
2018,04,27,09,11,17.30
2018,04,27,09,12,17.30
2018,04,27,09,13,17.40
2018,04,27,09,14,17.40
2018,04,27,09,15,17.40
2018,04,27,09,16,17.40
2018,04,27,09,17,17.40
2018,04,27,09,18,17.40
2018,04,27,09,19,17.50
2018,04,27,09,20,17.50
2018,04,27,09,21,17.50
2018,04,27,09,22,17.50
2018,04,27,09,23,17.60
2018,04,27,09,24,17.60
2018,04,27,09,25,17.60
2018,04,27,09,26,17.60
2018,04,27,09,27,17.60
2018,04,27,09,28,17.70
2018,04,27,09,29,17.70
2018,04,27,09,30,17.70
2018,04,27,09,31,17.80
2018,04,27,09,32,17.80
2018,04,27,09,33,17.80
2018,04,27,09,34,17.90
2018,04,27,09,35,17.90
2018,04,27,09,36,18.00
2018,04,27,09,37,18.10
2018,04,27,09,38,18.10
2018,04,27,09,39,18.20
2018,04,27,09,40,18.20
2018,04,27,09,41,18.20
2018,04,27,09,42,18.30
2018,04,27,09,43,18.30
2018,04,27,09,44,18.30
2018,04,27,09,45,18.30
2018,04,27,09,46,18.30
2018,04,27,09,47,18.30
2018,04,27,09,48,18.40
2018,04,27,09,49,18.40
2018,04,27,09,50,18.40
2018,04,27,09,51,18.50
2018,04,27,09,52,18.60
2018,04,27,09,53,18.60
2018,04,27,09,54,18.60
2018,04,27,09,55,18.70
2018,04,27,09,56,18.70
2018,04,27,09,57,18.70
2018,04,27,09,58,18.70
2018,04,27,09,59,18.80
2018,04,27,10,00,18.80
2018,04,27,10,01,18.80
2018,04,27,10,02,18.90
2018,04,27,10,03,18.90
2018,04,27,10,04,19.00
2018,04,27,10,05,19.00
2018,04,27,10,06,19.00
2018,04,27,10,07,19.10
2018,04,27,10,08,19.00
2018,04,27,10,09,18.90
2018,04,27,10,10,18.90
2018,04,27,10,11,18.90
2018,04,27,10,12,18.80
2018,04,27,10,13,18.70
2018,04,27,10,14,18.60
2018,04,27,10,15,18.60
2018,04,27,10,16,18.50
2018,04,27,10,17,18.50
2018,04,27,10,18,18.40
2018,04,27,10,19,18.40
2018,04,27,10,20,18.40
2018,04,27,10,21,18.40
2018,04,27,10,22,18.40
2018,04,27,10,23,18.40
2018,04,27,10,24,18.40
2018,04,27,10,25,18.40
2018,04,27,10,26,18.40
2018,04,27,10,27,18.40
2018,04,27,10,28,18.40
2018,04,27,10,29,18.40
2018,04,27,10,30,18.40
2018,04,27,10,31,18.40
2018,04,27,10,32,18.40
2018,04,27,10,33,18.40
2018,04,27,10,34,18.40
2018,04,27,10,35,18.50
2018,04,27,10,36,18.50
2018,04,27,10,37,18.60
2018,04,27,10,38,18.60
2018,04,27,10,39,18.60
2018,04,27,10,40,18.60
2018,04,27,10,41,18.60
2018,04,27,10,42,18.60
2018,04,27,10,43,18.60
2018,04,27,10,44,18.60
2018,04,27,10,45,18.60
2018,04,27,10,46,18.60
2018,04,27,10,47,18.50
2018,04,27,10,48,18.50
2018,04,27,10,49,18.40
2018,04,27,10,50,18.40
2018,04,27,10,51,18.30
2018,04,27,10,52,18.30
2018,04,27,10,53,18.30
2018,04,27,10,54,18.20
2018,04,27,10,55,18.10
2018,04,27,10,56,18.10
2018,04,27,10,57,18.00
2018,04,27,10,58,18.00
2018,04,27,10,59,17.90
2018,04,27,11,00,17.90
2018,04,27,11,01,17.90
2018,04,27,11,02,17.90
2018,04,27,11,03,17.90
2018,04,27,11,04,18.00
2018,04,27,11,05,18.00
2018,04,27,11,06,18.10
2018,04,27,11,07,18.10
2018,04,27,11,08,18.10
2018,04,27,11,09,18.20
2018,04,27,11,10,18.20
2018,04,27,11,11,18.20
2018,04,27,11,12,18.10
2018,04,27,11,13,18.20
2018,04,27,11,14,18.20
2018,04,27,11,15,18.30
2018,04,27,11,16,18.30
2018,04,27,11,17,18.30
2018,04,27,11,18,18.40
2018,04,27,11,19,18.40
2018,04,27,11,20,18.40
2018,04,27,11,21,18.40
2018,04,27,11,22,18.40
2018,04,27,11,23,18.40
2018,04,27,11,24,18.40
2018,04,27,11,25,18.40
2018,04,27,11,26,18.30
2018,04,27,11,27,18.30
2018,04,27,11,28,18.30
2018,04,27,11,29,18.30
2018,04,27,11,30,18.30
2018,04,27,11,31,18.30
2018,04,27,11,32,18.30
2018,04,27,11,33,18.30
2018,04,27,11,34,18.30
2018,04,27,11,35,18.20
2018,04,27,11,36,18.20
2018,04,27,11,37,18.20
2018,04,27,11,38,18.20
2018,04,27,11,39,18.20
2018,04,27,11,40,18.20
2018,04,27,11,41,18.10
2018,04,27,11,42,18.10
2018,04,27,11,43,18.00
2018,04,27,11,44,17.90
2018,04,27,11,45,17.80
2018,04,27,11,46,17.80
2018,04,27,11,47,17.80
2018,04,27,11,48,17.90
2018,04,27,11,49,17.90
2018,04,27,11,50,17.90
2018,04,27,11,51,17.80
2018,04,27,11,52,17.80
2018,04,27,11,53,17.80
2018,04,27,11,54,17.80
2018,04,27,11,55,17.80
2018,04,27,11,56,17.80
2018,04,27,11,57,17.80
2018,04,27,11,58,17.80
2018,04,27,11,59,17.80
2018,04,27,12,00,17.80
2018,04,27,12,01,17.80
2018,04,27,12,02,17.80
2018,04,27,12,03,17.80
2018,04,27,12,04,17.80
2018,04,27,12,05,17.90
2018,04,27,12,06,17.90
2018,04,27,12,07,17.90
2018,04,27,12,08,18.00
2018,04,27,12,09,18.00
2018,04,27,12,10,18.10
2018,04,27,12,11,18.10
2018,04,27,12,12,18.10
2018,04,27,12,13,18.00
2018,04,27,12,14,18.00
2018,04,27,12,15,17.90
2018,04,27,12,16,17.90
2018,04,27,12,17,17.90
2018,04,27,12,18,17.90
2018,04,27,12,19,17.90
2018,04,27,12,20,17.90
2018,04,27,12,21,17.90
2018,04,27,12,22,17.80
2018,04,27,12,23,17.80
2018,04,27,12,24,17.80
2018,04,27,12,25,17.70
2018,04,27,12,26,17.70
2018,04,27,12,27,17.70
2018,04,27,12,28,17.80
2018,04,27,12,29,17.80
2018,04,27,12,30,17.80
2018,04,27,12,31,17.80
2018,04,27,12,32,17.80
2018,04,27,12,33,17.70
2018,04,27,12,34,17.70
2018,04,27,12,35,17.80
2018,04,27,12,36,17.90
2018,04,27,12,37,18.00
2018,04,27,12,38,18.00
2018,04,27,12,39,18.10
2018,04,27,12,40,18.10
2018,04,27,12,41,18.20
2018,04,27,12,42,18.20
2018,04,27,12,43,18.20
2018,04,27,12,44,18.20
2018,04,27,12,45,18.20
2018,04,27,12,46,18.10
2018,04,27,12,47,18.10
2018,04,27,12,48,18.00
2018,04,27,12,49,18.00
2018,04,27,12,50,17.90
2018,04,27,12,51,17.80
2018,04,27,12,52,17.70
2018,04,27,12,53,17.70
2018,04,27,12,54,17.70
2018,04,27,12,55,17.70
2018,04,27,12,56,17.70
2018,04,27,12,57,17.80
2018,04,27,12,58,17.80
2018,04,27,12,59,17.90
2018,04,27,13,00,17.90
2018,04,27,13,01,17.90
2018,04,27,13,02,18.00
2018,04,27,13,03,18.10
2018,04,27,13,04,18.10
2018,04,27,13,05,18.10
2018,04,27,13,06,18.10
2018,04,27,13,07,18.10
2018,04,27,13,08,18.00
2018,04,27,13,09,18.00
2018,04,27,13,10,18.00
2018,04,27,13,11,18.00
2018,04,27,13,12,18.00
2018,04,27,13,13,18.10
2018,04,27,13,14,18.10
2018,04,27,13,15,18.20
2018,04,27,13,16,18.20
2018,04,27,13,17,18.10
2018,04,27,13,18,18.20
2018,04,27,13,19,18.10
2018,04,27,13,20,18.10
2018,04,27,13,21,18.00
2018,04,27,13,22,18.00
2018,04,27,13,23,17.90
2018,04,27,13,24,17.90
2018,04,27,13,25,18.00
2018,04,27,13,26,18.00
2018,04,27,13,27,18.00
2018,04,27,13,28,18.00
2018,04,27,13,29,18.00
2018,04,27,13,30,18.10
2018,04,27,13,31,18.20
2018,04,27,13,32,18.20
2018,04,27,13,33,18.30
2018,04,27,13,34,18.30
2018,04,27,13,35,18.40
2018,04,27,13,36,18.50
2018,04,27,13,37,18.50
2018,04,27,13,38,18.60
2018,04,27,13,39,18.70
2018,04,27,13,40,18.70
2018,04,27,13,41,18.70
2018,04,27,13,42,18.70
2018,04,27,13,43,18.70
2018,04,27,13,44,18.70
2018,04,27,13,45,18.70
2018,04,27,13,46,18.70
2018,04,27,13,47,18.80
2018,04,27,13,48,18.80
2018,04,27,13,49,18.80
2018,04,27,13,50,18.90
2018,04,27,13,51,18.90
2018,04,27,13,52,18.90
2018,04,27,13,53,18.90
2018,04,27,13,54,19.00
2018,04,27,13,55,19.10
2018,04,27,13,56,19.10
2018,04,27,13,57,19.20
2018,04,27,13,58,19.20
2018,04,27,13,59,19.30
2018,04,27,14,00,19.30
2018,04,27,14,01,19.40
2018,04,27,14,02,19.40
2018,04,27,14,03,19.40
2018,04,27,14,04,19.30
2018,04,27,14,05,19.30
2018,04,27,14,06,19.20
2018,04,27,14,07,19.20
2018,04,27,14,08,19.20
2018,04,27,14,09,19.20
2018,04,27,14,10,19.10
2018,04,27,14,11,19.10
2018,04,27,14,12,19.00
2018,04,27,14,13,19.00
2018,04,27,14,14,18.80
2018,04,27,14,15,18.70
2018,04,27,14,16,18.70
2018,04,27,14,17,18.60
2018,04,27,14,18,18.50
2018,04,27,14,19,18.40
2018,04,27,14,20,18.30
2018,04,27,14,21,18.20
2018,04,27,14,22,18.20
2018,04,27,14,23,18.10
2018,04,27,14,24,18.00
2018,04,27,14,25,18.00
2018,04,27,14,26,17.90
2018,04,27,14,27,17.90
2018,04,27,14,28,17.80
2018,04,27,14,29,17.80
2018,04,27,14,30,17.80
2018,04,27,14,31,17.70
2018,04,27,14,32,17.60
2018,04,27,14,33,17.50
2018,04,27,14,34,17.50
2018,04,27,14,35,17.40
2018,04,27,14,36,17.30
2018,04,27,14,37,17.30
2018,04,27,14,38,17.30
2018,04,27,14,39,17.30
2018,04,27,14,40,17.30
2018,04,27,14,41,17.30
2018,04,27,14,42,17.30
2018,04,27,14,43,17.30
2018,04,27,14,44,17.20
2018,04,27,14,45,17.20
2018,04,27,14,46,17.10
2018,04,27,14,47,17.10
2018,04,27,14,48,17.00
2018,04,27,14,49,16.90
2018,04,27,14,50,16.90
2018,04,27,14,51,16.80
2018,04,27,14,52,16.80
2018,04,27,14,53,16.80
2018,04,27,14,54,16.80
2018,04,27,14,55,16.80
2018,04,27,14,56,16.80
2018,04,27,14,57,16.70
2018,04,27,14,58,16.70
2018,04,27,14,59,16.70
2018,04,27,15,00,16.70
2018,04,27,15,01,16.70
2018,04,27,15,02,16.70
2018,04,27,15,03,16.70
2018,04,27,15,04,16.70
2018,04,27,15,05,16.70
2018,04,27,15,06,16.70
2018,04,27,15,07,16.60
2018,04,27,15,08,16.60
2018,04,27,15,09,16.60
2018,04,27,15,10,16.60
2018,04,27,15,11,16.60
2018,04,27,15,12,16.60
2018,04,27,15,13,16.70
2018,04,27,15,14,16.60
2018,04,27,15,15,16.60
2018,04,27,15,16,16.50
2018,04,27,15,17,16.50
2018,04,27,15,18,16.40
2018,04,27,15,19,16.40
2018,04,27,15,20,16.40
2018,04,27,15,21,16.40
2018,04,27,15,22,16.30
2018,04,27,15,23,16.30
2018,04,27,15,24,16.40
2018,04,27,15,25,16.40
2018,04,27,15,26,16.30
2018,04,27,15,27,16.30
2018,04,27,15,28,16.30
2018,04,27,15,29,16.30
2018,04,27,15,30,16.30
2018,04,27,15,31,16.40
2018,04,27,15,32,16.40
2018,04,27,15,33,16.40
2018,04,27,15,34,16.40
2018,04,27,15,35,16.40
2018,04,27,15,36,16.40
2018,04,27,15,37,16.40
2018,04,27,15,38,16.40
2018,04,27,15,39,16.40
2018,04,27,15,40,16.40
2018,04,27,15,41,16.40
2018,04,27,15,42,16.40
2018,04,27,15,43,16.50
2018,04,27,15,44,16.50
2018,04,27,15,45,16.60
2018,04,27,15,46,16.60
2018,04,27,15,47,16.70
2018,04,27,15,48,16.70
2018,04,27,15,49,16.70
2018,04,27,15,50,16.70
2018,04,27,15,51,16.60
2018,04,27,15,52,16.60
2018,04,27,15,53,16.60
2018,04,27,15,54,16.60
2018,04,27,15,55,16.50
2018,04,27,15,56,16.50
2018,04,27,15,57,16.50
2018,04,27,15,58,16.50
2018,04,27,15,59,16.50
2018,04,27,16,00,16.60
2018,04,27,16,01,16.60
2018,04,27,16,02,16.50
2018,04,27,16,03,16.50
2018,04,27,16,04,16.40
2018,04,27,16,05,16.40
2018,04,27,16,06,16.30
2018,04,27,16,07,16.30
2018,04,27,16,08,16.20
2018,04,27,16,09,16.20
2018,04,27,16,10,16.20
2018,04,27,16,11,16.10
2018,04,27,16,12,16.10
2018,04,27,16,13,16.10
2018,04,27,16,14,16.00
2018,04,27,16,15,16.00
2018,04,27,16,16,16.00
2018,04,27,16,17,15.90
2018,04,27,16,18,15.90
2018,04,27,16,19,15.80
2018,04,27,16,20,15.80
2018,04,27,16,21,15.80
2018,04,27,16,22,15.80
2018,04,27,16,23,15.80
2018,04,27,16,24,15.80
2018,04,27,16,25,15.80
2018,04,27,16,26,15.80
2018,04,27,16,27,15.70
2018,04,27,16,28,15.70
2018,04,27,16,29,15.70
2018,04,27,16,30,15.70
2018,04,27,16,31,15.60
2018,04,27,16,32,15.60
2018,04,27,16,33,15.60
2018,04,27,16,34,15.60
2018,04,27,16,35,15.60
2018,04,27,16,36,15.50
2018,04,27,16,37,15.50
2018,04,27,16,38,15.40
2018,04,27,16,39,15.40
2018,04,27,16,40,15.40
2018,04,27,16,41,15.50
2018,04,27,16,42,15.50
2018,04,27,16,43,15.60
2018,04,27,16,44,15.60
2018,04,27,16,45,15.60
2018,04,27,16,46,15.60
2018,04,27,16,47,15.60
2018,04,27,16,48,15.70
2018,04,27,16,49,15.70
2018,04,27,16,50,15.70
2018,04,27,16,51,15.70
2018,04,27,16,52,15.70
2018,04,27,16,53,15.70
2018,04,27,16,54,15.70
2018,04,27,16,55,15.80
2018,04,27,16,56,15.80
2018,04,27,16,57,15.80
2018,04,27,16,58,15.70
2018,04,27,16,59,15.60
2018,04,27,17,00,15.40
2018,04,27,17,01,15.30
2018,04,27,17,02,15.30
2018,04,27,17,03,15.40
2018,04,27,17,04,15.40
2018,04,27,17,05,15.40
2018,04,27,17,06,15.40
2018,04,27,17,07,15.40
2018,04,27,17,08,15.40
2018,04,27,17,09,15.30
2018,04,27,17,10,15.30
2018,04,27,17,11,15.20
2018,04,27,17,12,15.20
2018,04,27,17,13,15.20
2018,04,27,17,14,15.20
2018,04,27,17,15,15.20
2018,04,27,17,16,15.20
2018,04,27,17,17,15.10
2018,04,27,17,18,15.10
2018,04,27,17,19,15.10
2018,04,27,17,20,15.20
2018,04,27,17,21,15.30
2018,04,27,17,22,15.30